Lapse_Rate
5.7 5.6 5.6 5.8 5.8 5.8 5.7 5.7 5.8 5.9 6.0 6.0 6.0 5.9 5.8 5.8 5.8 5.7 5.7 5.7 5.6 5.6 5.7 5.7 5.7 5.6 5.4 5.2 5.0 5.0 5.1 5.2 5.2 5.4 5.6 5.6 5.4 5.6 5.7 5.7 5.3 5.2 5.1
5.6 5.5 5.6 5.9 5.9 5.8 5.6 5.7 5.9 6.0 6.0 5.9 5.9 5.9 5.8 5.8 5.7 5.7 5.6 5.5 5.5 5.5 5.5 5.5 5.5 5.5 5.5 5.5 5.5 5.1 4.7 4.7 5.1 5.4 5.5 5.6 5.5 5.4 5.6 5.6 5.5 5.4 5.5
5.6 5.6 5.7 5.9 6.0 5.7 5.5 5.6 5.9 5.9 5.9 5.9 5.8 5.8 5.8 5.7 5.6 5.5 5.5 5.5 5.4 5.4 5.4 5.3 5.3 5.3 5.3 5.3 5.3 5.4 5.2 5.1 4.8 4.8 5.3 5.6 5.7 5.7 5.7 5.5 5.5 5.6 5.5
5.8 5.8 6.0 6.2 6.1 5.8 5.8 6.0 6.1 6.0 6.0 5.9 5.9 5.8 5.7 5.7 5.6 5.5 5.5 5.5 5.5 5.6 5.5 5.5 5.5 5.5 5.4 5.3 5.2 5.2 5.2 5.1 5.1 5.0 4.8 4.7 5.1 5.5 5.7 5.9 5.9 5.4 5.5
5.9 5.9 6.0 5.9 5.8 5.8 6.1 6.1 6.2 6.2 6.1 6.1 6.0 5.9 5.8 5.7 5.7 5.6 5.7 5.6 5.6 5.5 5.5 5.4 5.4 5.4 5.4 5.4 5.3 5.2 5.1 4.9 4.8 5.0 5.0 5.0 5.0 4.9 5.1 5.5 5.7 5.9 5.5
5.8 5.8 5.7 6.1 6.3 6.2 6.2 6.3 6.2 6.2 6.3 6.2 6.2 6.0 5.9 5.9 5.8 5.8 5.8 5.7 5.6 5.6 5.6 5.6 5.5 5.4 5.3 5.3 5.3 5.2 5.3 5.2 5.0 4.8 4.8 4.9 5.0 4.9 5.0 5.2 5.4 5.6 5.8
5.9 6.1 6.2 6.4 6.6 6.6 6.5 6.3 6.3 6.3 6.2 6.4 6.2 6.1 5.9 5.9 5.9 5.8 5.7 5.6 5.6 5.7 5.6 5.7 5.7 5.6 5.6 5.5 5.4 5.3 5.3 5.3 5.3 5.3 5.3 5.3 5.3 5.4 5.1 4.9 5.1 5.3 5.4
5.8 6.1 6.4 6.5 6.8 6.7 6.5 6.4 6.2 6.3 6.3 6.2 6.3 6.3 6.2 6.1 6.0 5.8 5.8 5.8 5.8 5.7 5.7 5.8 5.8 5.8 5.7 5.7 5.6 5.6 5.4 5.3 5.5 5.5 5.5 5.7 5.8 5.7 5.7 5.6 5.5 5.4 5.7
6.3 6.6 6.6 6.6 6.6 6.5 6.4 6.5 6.4 6.3 6.2 6.2 6.1 6.1 6.0 5.9 5.8 5.8 5.8 5.8 5.7 5.6 5.5 5.5 5.7 5.8 5.8 5.7 5.5 5.6 5.4 5.5 5.5 5.5 5.6 5.8 6.1 6.0 5.9 6.0 6.0 5.7 5.9
6.5 6.5 6.5 6.6 6.7 6.7 6.7 6.7 6.5 6.4 6.3 6.1 6.1 6.0 5.9 5.9 5.8 5.8 5.7 5.6 5.7 5.7 5.6 5.6 5.8 5.9 6.0 5.9 5.9 5.7 5.9 6.0 6.3 6.4 6.2 6.2 6.6 6.7 6.7 6.5 6.6 6.6 6.7
6.8 6.9 6.9 6.9 6.8 6.7 6.7 6.5 6.4 6.4 6.4 6.5 6.5 6.4 6.3 6.1 6.0 5.9 5.9 5.8 5.7 5.5 5.4 5.6 6.0 6.0 6.0 5.9 6.1 6.4 6.6 6.7 6.8 7.0 7.2 7.1 7.1 7.2 7.3 7.2 7.2 7.4 7.4
7.2 7.0 7.0 6.9 6.8 6.7 6.6 6.5 6.6 6.6 6.5 6.5 6.6 6.6 6.7 6.4 6.2 6.0 5.8 5.8 5.9 6.0 6.0 6.1 6.2 6.3 6.4 6.4 6.4 6.4 6.5 6.5 6.8 6.9 6.9 7.1 6.9 7.1 7.3 7.4 7.3 7.4 7.4
6.8 6.8 6.8 6.6 6.5 6.5 6.5 6.5 6.5 6.5 6.4 6.4 6.4 6.4 6.5 6.4 6.3 6.2 6.1 6.0 6.0 6.2 6.5 6.8 6.8 6.6 6.5 6.6 6.7 6.6 6.7 6.6 6.6 7.0 7.1 7.0 6.9 7.1 7.1 7.2 7.2 7.2 7.4
6.6 6.6 6.6 6.6 6.6 6.5 6.4 6.4 6.4 6.3 6.1 6.0 5.9 6.0 6.1 6.4 6.7 6.7 6.5 6.3 6.3 6.4 6.3 6.3 6.3 6.5 6.6 6.5 6.6 6.6 6.6 6.8 6.7 7.1 7.0 6.8 6.8 6.9 7.1 7.1 7.4 7.3 7.4
6.1 6.2 6.1 6.2 6.1 6.1 6.0 6.1 6.1 6.0 5.8 5.8 5.9 6.1 6.2 6.2 6.2 6.4 6.6 6.6 6.4 6.3 6.1 6.1 6.2 6.4 6.3 6.4 6.6 6.6 6.6 6.7 6.9 6.8 7.0 6.8 6.9 7.0 7.2 7.1 7.2 7.4 7.5
5.7 5.7 5.5 5.6 5.8 5.7 5.8 5.9 6.0 6.1 6.1 6.1 6.1 6.2 6.3 6.3 6.2 6.5 6.6 6.7 6.6 6.3 6.2 6.1 6.2 6.2 6.3 6.3 6.4 6.6 6.6 6.7 6.9 6.8 6.8 6.8 7.0 7.0 7.2 7.3 7.2 7.4 7.5
5.5 5.6 5.5 5.6 6.0 6.4 6.5 6.5 6.4 6.2 6.1 6.1 6.1 6.2 6.4 6.6 6.5 6.3 6.0 6.0 5.7 5.9 5.8 5.9 6.0 6.0 6.2 6.5 6.6 6.5 6.6 6.7 6.6 6.8 6.7 6.7 6.7 7.1 7.1 7.2 7.4 7.5 7.4
5.6 5.8 6.1 6.4 6.4 6.3 6.3 6.3 6.3 6.3 6.3 6.4 6.3 6.3 6.1 6.0 5.9 5.8 6.0 5.8 6.2 6.2 6.3 6.3 6.1 6.2 6.5 6.4 6.5 6.5 6.6 6.6 6.5 6.6 6.8 6.5 6.7 7.0 7.1 7.4 7.3 7.4 7.3
6.2 6.5 6.6 6.5 6.3 6.2 6.1 5.9 5.8 6.0 6.0 6.1 5.9 6.1 6.0 6.0 6.1 6.2 6.2 6.3 6.4 6.5 6.4 6.3 6.3 6.2 6.3 6.4 6.5 6.5 6.4 6.3 6.3 6.4 6.6 6.8 6.9 7.0 7.2 7.3 7.3 7.2 7.2
6.2 6.5 6.7 6.5 6.6 6.5 6.5 6.4 6.4 6.4 6.2 6.1 6.1 6.2 6.2 6.4 6.7 6.8 6.7 6.6 6.5 6.5 6.4 6.4 6.3 6.3 6.3 6.3 6.2 6.1 6.1 6.0 6.1 6.0 6.1 6.3 6.5 6.7 6.8 7.1 7.3 7.1 7.1
6.5 6.5 6.6 6.7 6.6 6.7 6.6 6.4 6.4 6.3 6.1 6.2 6.4 6.5 6.4 6.5 6.5 6.5 6.5 6.4 6.3 6.3 6.2 6.0 5.9 5.9 5.9 5.8 5.7 5.7 5.6 5.6 5.6 5.6 5.6 5.7 5.8 6.0 6.2 6.5 6.9 7.0 7.0
6.3 6.5 6.4 6.5 6.5 6.6 6.5 6.3 6.4 6.6 6.6 6.5 6.4 6.4 6.3 6.3 6.4 6.4 6.5 6.5 6.4 6.2 6.0 5.8 5.6 5.5 5.4 5.3 5.2 5.0 4.9 4.9 5.0 5.0 5.0 5.0 5.1 5.3 5.5 5.8 6.2 6.6 6.7
6.3 6.3 6.2 6.2 6.2 6.3 6.4 6.5 6.7 6.6 6.5 6.4 6.4 6.4 6.5 6.5 6.5 6.3 6.2 6.0 5.7 5.4 5.1 4.8 4.7 4.8 4.8 4.7 4.6 4.5 4.4 4.4 4.3 4.0 4.1 4.2 4.3 4.4 4.7 5.0 5.4 5.9 6.3
6.1 6.1 6.1 6.0 6.2 6.5 6.6 6.7 6.5 6.4 6.3 6.4 6.4 6.5 6.4 6.3 6.1 5.8 5.4 5.1 4.8 4.7 4.6 4.6 4.6 4.6 4.7 4.8 4.8 4.7 4.6 4.5 4.4 4.1 3.9 3.8 4.0 4.0 4.0 4.3 4.8 5.1 5.7
6.0 6.1 6.3 6.5 6.6 6.6 6.5 6.5 6.5 6.5 6.6 6.6 6.5 6.3 6.0 5.6 5.1 5.1 5.1 5.1 5.3 5.6 5.8 5.8 5.7 5.8 5.7 5.6 5.4 5.2 5.0 4.8 4.6 4.5 4.2 4.0 3.8 3.7 3.6 3.7 4.1 4.6 5.0
6.2 6.4 6.5 6.5 6.5 6.6 6.6 6.6 6.6 6.6 6.6 6.5 6.2 5.9 5.6 5.5 5.7 6.0 6.3 6.4 6.6 6.6 6.7 6.7 6.6 6.5 6.4 6.3 6.2 6.0 5.6 5.3 5.0 4.7 4.3 4.1 3.9 3.5 3.4 3.6 3.8 4.0 4.6
Wind_Speed
14 12 13 12 12 12 9 10 10 9 9 7 5 4 3 2 2 2 2 3 3 4 5 5 6 7 5 4 4 4 4 4 8 8 8 13 16 16 21 22 19 19 17
13 15 14 13 12 12 11 12 13 11 10 9 7 6 5 3 2 1 1 1 2 3 3 4 4 4 5 5 4 5 5 6 8 12 10 9 11 18 20 19 19 17 17
12 13 14 15 15 15 14 13 15 13 12 12 10 8 6 6 4 3 3 2 2 2 2 2 3 4 4 4 5 5 5 5 7 8 10 9 9 11 11 15 15 19 18
13 13 14 15 16 16 14 14 15 16 13 13 12 10 9 8 7 6 5 4 3 3 3 3 3 3 4 5 4 5 5 6 6 8 9 10 9 10 8 10 11 8 12
13 14 17 14 14 14 15 15 16 16 15 15 12 12 11 10 8 8 7 5 5 5 5 5 5 4 5 5 4 5 6 5 6 7 8 9 10 10 11 9 9 10 11
15 18 15 13 14 15 15 16 15 15 13 14 13 12 11 10 13 13 9 6 6 6 6 6 7 8 6 6 7 8 9 8 8 7 8 9 12 10 10 9 10 10 8
16 15 15 15 15 15 14 15 17 16 14 15 14 13 13 11 15 15 13 9 7 6 7 7 6 7 8 8 8 9 9 9 9 9 10 10 12 11 12 12 12 12 12
14 14 14 14 14 13 14 16 16 14 15 15 15 14 12 10 16 16 14 11 7 8 8 8 9 9 9 8 8 9 8 9 10 10 10 10 12 16 16 15 15 15 12
13 13 13 13 13 13 15 15 14 14 13 14 13 14 14 12 17 17 14 9 9 10 10 11 11 9 12 12 10 10 9 10 13 13 16 20 21 20 18 13 10 9 11
9 9 9 10 11 12 13 12 11 12 12 10 12 13 15 11 15 16 15 7 9 7 9 11 15 16 16 14 11 10 10 10 9 10 15 17 18 17 16 15 10 9 8
6 7 7 9 9 8 9 9 10 11 11 11 12 11 11 12 11 17 17 9 8 8 8 8 8 14 16 16 16 11 12 13 14 11 10 9 11 14 14 14 15 9 9
4 5 6 6 6 7 9 8 10 10 11 11 10 10 8 9 14 15 17 18 15 9 10 8 10 15 16 18 17 19 20 18 10 9 8 9 9 9 10 13 16 19 21
5 5 5 5 4 5 7 8 8 9 9 9 9 8 7 7 7 16 17 17 18 12 11 14 18 18 21 20 23 23 20 10 9 8 9 9 8 10 15 16 17 19 20
7 6 5 5 6 5 5 6 6 8 8 8 9 8 7 7 7 6 6 8 12 12 14 14 15 17 21 19 14 14 9 10 9 9 9 9 8 8 8 7 9 9 9
7 7 6 6 6 6 5 4 5 4 5 6 5 5 6 6 7 9 9 7 8 11 12 9 9 10 10 10 9 10 8 8 9 9 9 10 10 9 9 9 8 9 10
7 6 5 6 5 5 5 5 5 4 6 6 6 6 5 11 12 14 17 20 22 24 11 10 10 10 10 9 9 9 9 12 9 9 9 9 9 9 9 9 9 10 10
7 7 5 5 4 4 4 4 4 2 4 5 6 8 10 11 14 16 17 18 20 19 10 10 10 10 10 9 9 9 10 9 11 9 9 9 9 9 12 10 10 9 10
6 9 5 4 4 3 2 2 2 3 3 3 3 6 9 14 17 18 19 19 11 13 10 10 11 10 10 10 10 10 9 9 9 10 9 9 9 10 10 11 10 9 10
5 4 4 3 3 3 3 2 2 2 3 4 4 7 9 14 16 18 19 10 10 11 10 11 10 10 11 10 10 10 10 10 10 9 10 10 10 10 11 11 10 17 18
3 7 6 3 3 2 2 2 2 3 4 5 6 6 6 8 7 8 8 9 10 10 10 11 11 11 12 12 11 11 11 12 12 12 12 12 12 11 12 12 11 11 11
2 2 5 3 2 2 2 4 4 5 6 6 8 8 15 10 10 10 10 10 10 11 11 11 11 11 11 11 12 12 12 12 12 12 11 11 11 11 11 11 11 11 11
2 3 3 3 3 3 4 5 6 6 8 9 9 10 19 11 10 11 12 12 12 12 13 12 12 12 12 12 12 13 13 13 12 12 12 12 12 12 12 12 12 11 12
3 3 4 4 5 7 6 6 6 8 9 10 10 9 9 10 11 12 12 12 12 12 20 19 13 14 22 23 24 18 14 14 14 14 13 13 13 12 12 12 12 12 12
6 6 7 6 6 6 6 7 8 13 12 11 11 11 11 11 12 14 14 13 13 14 22 21 21 19 22 25 26 26 26 27 26 23 22 14 13 15 13 12 13 14 13
7 7 7 7 6 7 8 9 10 11 11 11 12 12 13 13 14 15 15 14 14 14 17 21 24 28 32 33 33 33 32 36 32 28 22 17 17 18 14 12 13 13 14
9 8 6 5 6 7 9 10 11 11 12 12 13 13 13 14 15 15 15 15 15 15 18 18 25 32 34 33 37 38 41 44 41 41 31 16 15 14 13 16 19 13 14
Wind_Direction
191 195 194 194 196 198 200 197 192 183 180 178 173 170 165 141 86 63 62 33 25 23 24 17 14 7 5 2 354 351 320 304 284 297 301 322 322 328 326 323 315 320 318
192 196 202 196 197 201 205 201 195 195 192 190 188 192 188 180 166 139 128 43 10 15 14 11 14 5 6 3 349 334 312 307 308 314 322 320 319 326 324 327 320 314 316
190 195 200 201 200 205 204 201 198 198 197 196 198 201 200 197 197 203 210 233 277 304 327 338 354 359 2 354 343 333 327 324 312 308 316 321 323 324 328 328 330 333 321
193 197 202 203 202 204 201 200 200 200 201 203 204 205 206 205 210 213 215 230 258 276 289 300 317 332 339 334 332 332 330 318 313 319 317 320 324 329 328 334 332 335 333
195 201 212 205 204 203 203 202 202 203 206 205 205 208 209 211 213 212 215 230 247 263 266 278 275 301 295 299 313 319 311 312 312 313 315 316 322 331 338 336 330 328 327
198 211 210 205 199 202 202 202 203 206 205 204 207 208 208 211 212 209 219 229 237 256 275 278 279 285 276 279 296 295 298 305 311 311 310 310 313 323 321 333 322 330 329
204 212 208 203 203 203 200 202 206 207 204 207 209 207 211 211 209 209 218 237 240 243 260 273 279 274 272 287 290 285 277 281 285 296 293 297 305 314 326 315 310 307 299
203 209 206 204 206 201 200 205 208 206 206 207 210 209 210 213 208 211 218 231 241 248 251 258 267 270 269 276 286 286 280 278 281 283 282 290 298 308 304 302 305 297 289
202 206 204 199 200 198 202 205 206 207 206 208 209 206 208 210 208 210 212 222 236 246 253 255 259 262 264 266 274 274 282 288 292 280 282 285 286 290 294 299 295 304 303
201 202 194 192 197 200 202 204 206 209 215 209 210 209 210 212 206 210 214 228 236 243 248 246 245 252 262 260 265 276 279 284 288 289 289 291 291 290 292 283 291 293 303
157 165 174 181 187 190 193 200 203 204 211 211 211 206 206 211 209 216 218 228 238 243 246 248 244 245 250 259 264 266 275 288 290 290 289 286 289 294 290 288 286 288 286
140 153 163 170 181 179 172 174 185 199 204 201 201 203 199 201 214 214 224 233 240 246 250 254 254 253 256 263 268 266 269 278 282 278 286 286 290 286 285 286 289 287 279
113 115 126 137 150 166 172 172 182 191 194 199 199 203 204 205 218 227 231 235 241 249 253 258 263 263 263 267 265 265 271 270 265 271 275 280 281 287 296 293 281 286 278
128 131 134 139 143 155 165 176 181 188 194 198 198 200 203 205 213 213 223 239 247 253 258 263 262 262 267 267 266 260 250 248 258 269 277 281 286 287 278 291 292 285 295
124 129 137 134 135 140 140 161 178 181 196 197 201 205 201 214 215 218 226 240 248 253 257 257 257 257 259 263 260 258 257 258 259 262 266 277 281 284 291 287 287 298 285
123 132 135 135 138 135 138 137 139 154 192 202 207 217 237 245 251 247 248 249 252 252 251 249 250 249 250 249 253 253 244 251 251 259 263 262 277 283 284 289 290 277 290
130 133 132 129 136 143 147 161 169 158 4 325 289 282 276 272 269 273 277 279 278 280 272 272 267 264 266 264 264 260 257 253 256 257 260 268 266 271 284 281 275 274 282
127 123 124 132 135 134 149 160 164 184 218 242 285 285 280 277 278 276 276 279 274 268 264 262 264 265 265 264 264 264 264 263 258 258 257 260 266 269 270 268 260 270 273
121 122 125 126 135 149 162 172 215 248 268 276 283 278 271 275 280 277 273 265 264 262 261 260 262 263 264 266 267 269 265 261 259 259 261 261 261 259 261 257 259 266 273
129 148 142 143 146 173 193 209 244 254 255 255 261 265 277 287 275 270 262 261 261 261 261 261 261 261 261 261 261 259 258 258 258 256 258 258 257 256 260 259 260 266 264
144 155 171 161 184 202 239 252 255 261 271 267 266 264 265 267 268 264 265 261 258 257 256 256 257 256 255 254 253 252 251 252 252 252 252 252 252 255 256 257 260 262 266
188 186 182 210 218 229 244 254 265 269 269 272 273 270 270 267 266 264 262 260 257 254 253 252 252 252 252 251 251 250 249 249 248 248 249 250 252 254 255 255 257 259 263
222 231 244 246 244 252 260 268 273 268 268 265 265 263 258 256 257 259 260 260 259 258 255 253 254 254 252 251 249 247 246 245 244 243 245 246 246 248 249 251 253 256 258
223 233 238 246 250 256 263 269 270 269 270 267 268 265 262 259 259 257 257 257 255 253 250 247 246 248 250 248 247 245 244 243 243 243 242 244 244 249 247 246 248 252 259
243 243 245 255 266 272 277 278 275 272 269 268 267 264 263 261 260 259 258 255 254 252 251 246 245 246 246 246 246 245 244 246 243 240 242 243 242 243 243 245 247 249 253
243 248 254 261 263 265 270 270 267 267 265 263 262 261 261 261 260 260 259 257 256 254 254 253 251 249 251 252 251 249 249 251 250 250 241 231 231 233 236 240 242 245 248